Find Starlink 3135

NORAD ID: 49424 Int'l Des: 2021-104 Owner: SPXS Country: US Constellation: starlink operational
LEOCIRCULAR

当前视图

正在加载3D地球...

About Starlink 3135

Starlink 3135 (NORAD 49424) is a starlink constellation satellite (v1.5) launched Nov 13, 2021 by SPXS of US. It operates in LEO, CIRCULAR orbit with a mass of 290.00 kg.

关于 Starlink 3135

正在加载描述...

即将过境

Passes for default location (London). Set your location on the main map for personalized predictions.

高度历史

Loading altitude history...

两行轨道根数

1 49424U 21104S 26170.16965823 -.00000239 00000-0 30745-5 0 9996
2 49424 53.1616 133.4550 0001323 73.5274 286.5863 15.08832732253945
Epoch: Jun 19, 2026 • Age: 26 hours

当前状态

高度 554.9 km
速度 7.58 km/s
星下点 -42.66°S, 14.99°W
发射日期 Nov 13, 2021
运行时间 4.5 years
类型 internet

技术详情

分类 Payload
质量 290.00 kg
干质量 270.00 kg
总质量 290.00 kg
长度 0.20 m
直径 2.80 m
跨度 9.00 m
形状 Box + pan
制造商 SPXS
平台类型 Starlink
阶段状态 In Orbit
所有者/国家 SPXS/US

Most Searched